When you browse on this site, cookies collect data to enhance your experience and personalize the content and advertising you see.
Visit our Privacy Policy to learn more. By continuing to use the site, you agree to this use of cookies and data.
  • In Belgien
  • Länderverzeichnis
  • Für 7 Tage
  • Wassertemperatur
  • Satellitenkarten
  • Wetterkarte
  • Widgets
  • user-avatar
    Anmelden

    Stündliche Wetter Fier

    Heute, 24 Januar, Donnerstag

    Zeit Temperatur Niederschläge Wind Luftdruck Luftfeuchtigkeit
    00:00 +5°C° 1.3 mm 3 m/S 744 mmHg 94%
    01:00 +5°C° 1.3 mm 3 m/S 744 mmHg 92%
    02:00 +5°C° 0 mm 3 m/S 744 mmHg 90%
    03:00 +5°C° 0 mm 3 m/S 744 mmHg 88%
    04:00 +5°C° 0 mm 3 m/S 744 mmHg 86%
    05:00 +5°C° 0 mm 3 m/S 744 mmHg 85%
    06:00 +5°C° 0 mm 3 m/S 744 mmHg 84%
    07:00 +4°C° 0 mm 3 m/S 744 mmHg 82%
    08:00 +7°C° 0 mm 3 m/S 744 mmHg 77%
    09:00 +8°C° 0 mm 3 m/S 745 mmHg 72%
    10:00 +10°C° 0 mm 3 m/S 745 mmHg 67%
    11:00 +11°C° 0 mm 3 m/S 745 mmHg 62%
    12:00 +12°C° 0 mm 3 m/S 744 mmHg 56%
    13:00 +13°C° 0 mm 3 m/S 744 mmHg 51%
    14:00 +12°C° 0 mm 3 m/S 744 mmHg 54%
    15:00 +13°C° 0 mm 2 m/S 744 mmHg 57%
    16:00 +13°C° 0 mm 2 m/S 744 mmHg 60%
    17:00 +11°C° 0 mm 3 m/S 744 mmHg 64%
    18:00 +8°C° 0 mm 4 m/S 743 mmHg 68%
    19:00 +7°C° 0 mm 4 m/S 743 mmHg 71%
    20:00 +7°C° 0.1 mm 5 m/S 743 mmHg 70%
    21:00 +7°C° 0.1 mm 6 m/S 743 mmHg 68%
    22:00 +6°C° 0.1 mm 7 m/S 742 mmHg 66%
    23:00 +7°C° 1 mm 6 m/S 743 mmHg 70%

    Morgen, 25 Januar, Freitag

    Zeit Temperatur Niederschläge Wind Luftdruck Luftfeuchtigkeit
    00:00 +7°C° 1 mm 5 m/S 743 mmHg 74%
    01:00 +7°C° 1 mm 5 m/S 743 mmHg 78%
    02:00 +7°C° 0.1 mm 4 m/S 743 mmHg 79%
    03:00 +7°C° 0.1 mm 4 m/S 743 mmHg 79%
    04:00 +7°C° 0.1 mm 3 m/S 743 mmHg 79%
    05:00 +7°C° 0.3 mm 3 m/S 743 mmHg 80%
    06:00 +7°C° 0.3 mm 2 m/S 743 mmHg 82%
    07:00 +7°C° 0.3 mm 2 m/S 743 mmHg 83%
    08:00 +8°C° 0.1 mm 2 m/S 744 mmHg 79%
    09:00 +9°C° 0.1 mm 2 m/S 744 mmHg 74%
    10:00 +9°C° 0.1 mm 2 m/S 744 mmHg 70%
    11:00 +10°C° 0 mm 2 m/S 744 mmHg 68%
    12:00 +10°C° 0 mm 2 m/S 744 mmHg 66%
    13:00 +12°C° 0 mm 2 m/S 744 mmHg 64%
    14:00 +12°C° 0 mm 2 m/S 744 mmHg 67%
    15:00 +10°C° 0 mm 2 m/S 744 mmHg 69%
    16:00 +10°C° 0 mm 2 m/S 744 mmHg 72%
    17:00 +9°C° 0 mm 3 m/S 744 mmHg 74%
    18:00 +9°C° 0 mm 3 m/S 744 mmHg 77%
    19:00 +8°C° 0 mm 3 m/S 745 mmHg 79%
    20:00 +8°C° 0 mm 3 m/S 745 mmHg 79%
    21:00 +8°C° 0 mm 3 m/S 746 mmHg 80%
    22:00 +7°C° 0 mm 3 m/S 746 mmHg 80%
    23:00 +7°C° 0.1 mm 2 m/S 746 mmHg 82%

    übermorgen, 26 Januar, Samstag

    Zeit Temperatur Niederschläge Wind Luftdruck Luftfeuchtigkeit
    00:00 +7°C° 0.1 mm 2 m/S 747 mmHg 83%
    01:00 +7°C° 0.1 mm 2 m/S 747 mmHg 84%
    02:00 +6°C° 0 mm 2 m/S 747 mmHg 84%
    03:00 +6°C° 0 mm 2 m/S 747 mmHg 85%
    04:00 +7°C° 0 mm 1 m/S 747 mmHg 85%
    05:00 +6°C° 0 mm 1 m/S 748 mmHg 84%
    06:00 +5°C° 0 mm 2 m/S 748 mmHg 83%
    07:00 +5°C° 0 mm 2 m/S 749 mmHg 83%
    08:00 +6°C° 0 mm 2 m/S 749 mmHg 77%
    09:00 +7°C° 0 mm 2 m/S 750 mmHg 71%
    10:00 +8°C° 0 mm 2 m/S 750 mmHg 65%
    11:00 +9°C° 0 mm 2 m/S 751 mmHg 61%
    12:00 +10°C° 0 mm 2 m/S 751 mmHg 57%
    13:00 +12°C° 0 mm 2 m/S 751 mmHg 53%
    14:00 +12°C° 0 mm 2 m/S 751 mmHg 57%
    15:00 +11°C° 0 mm 3 m/S 752 mmHg 60%
    16:00 +11°C° 0 mm 3 m/S 752 mmHg 64%
    17:00 +10°C° 0 mm 3 m/S 752 mmHg 67%
    18:00 +9°C° 0 mm 3 m/S 753 mmHg 70%
    19:00 +8°C° 0 mm 3 m/S 754 mmHg 73%
    20:00 +7°C° 0 mm 3 m/S 754 mmHg 73%
    21:00 +7°C° 0 mm 3 m/S 754 mmHg 73%
    22:00 +7°C° 0 mm 3 m/S 755 mmHg 73%
    23:00 +5°C° 0 mm 3 m/S 755 mmHg 73%

    27 Januar, Sonntag

    Zeit Temperatur Niederschläge Wind Luftdruck Luftfeuchtigkeit
    00:00 +5°C° 0 mm 3 m/S 755 mmHg 72%
    01:00 +4°C° 0 mm 3 m/S 755 mmHg 71%
    02:00 +4°C° 0 mm 3 m/S 755 mmHg 71%
    03:00 +4°C° 0 mm 3 m/S 755 mmHg 71%
    04:00 +4°C° 0 mm 3 m/S 755 mmHg 71%
    05:00 +3°C° 0 mm 3 m/S 755 mmHg 71%
    06:00 +3°C° 0 mm 3 m/S 756 mmHg 71%
    07:00 +4°C° 0 mm 2 m/S 756 mmHg 71%
    08:00 +6°C° 0 mm 2 m/S 756 mmHg 66%
    09:00 +7°C° 0 mm 2 m/S 756 mmHg 61%
    10:00 +9°C° 0 mm 2 m/S 756 mmHg 56%
    11:00 +10°C° 0 mm 2 m/S 756 mmHg 54%
    12:00 +12°C° 0 mm 2 m/S 755 mmHg 52%
    13:00 +13°C° 0 mm 2 m/S 755 mmHg 49%
    14:00 +13°C° 0 mm 2 m/S 755 mmHg 53%
    15:00 +13°C° 0 mm 2 m/S 755 mmHg 57%
    16:00 +12°C° 0 mm 2 m/S 755 mmHg 61%
    17:00 +11°C° 0 mm 1 m/S 755 mmHg 64%
    18:00 +10°C° 0 mm 1 m/S 755 mmHg 68%
    19:00 +8°C° 0 mm 0 m/S 756 mmHg 71%
    20:00 +9°C° 0 mm 1 m/S 756 mmHg 72%
    21:00 +8°C° 0 mm 1 m/S 756 mmHg 74%
    22:00 +7°C° 0 mm 2 m/S 756 mmHg 75%
    23:00 +7°C° 0 mm 2 m/S 756 mmHg 76%

    28 Januar, Montag

    Zeit Temperatur Niederschläge Wind Luftdruck Luftfeuchtigkeit
    00:00 +7°C° 0 mm 2 m/S 756 mmHg 76%
    01:00 +7°C° 0 mm 3 m/S 756 mmHg 77%
    02:00 +7°C° 0 mm 3 m/S 756 mmHg 78%
    03:00 +5°C° 0 mm 3 m/S 755 mmHg 78%
    04:00 +5°C° 0 mm 3 m/S 755 mmHg 78%
    05:00 +5°C° 0 mm 4 m/S 755 mmHg 79%
    06:00 +5°C° 0 mm 4 m/S 755 mmHg 79%
    07:00 +5°C° 0 mm 4 m/S 755 mmHg 79%
    08:00 +7°C° 0 mm 5 m/S 755 mmHg 74%
    09:00 +9°C° 0 mm 5 m/S 755 mmHg 70%
    10:00 +11°C° 0 mm 6 m/S 755 mmHg 65%
    11:00 +11°C° 0 mm 7 m/S 754 mmHg 63%
    12:00 +12°C° 0 mm 8 m/S 754 mmHg 61%
    13:00 +13°C° 0 mm 8 m/S 753 mmHg 58%
    14:00 +12°C° 0 mm 8 m/S 753 mmHg 62%
    15:00 +12°C° 0 mm 7 m/S 753 mmHg 65%
    16:00 +11°C° 0 mm 7 m/S 753 mmHg 68%
    17:00 +10°C° 0 mm 7 m/S 753 mmHg 71%
    18:00 +10°C° 0 mm 6 m/S 753 mmHg 74%
    19:00 +9°C° 0 mm 6 m/S 753 mmHg 77%
    20:00 +9°C° 0.3 mm 6 m/S 753 mmHg 78%
    21:00 +9°C° 0.3 mm 5 m/S 753 mmHg 79%
    22:00 +9°C° 0.3 mm 5 m/S 753 mmHg 81%
    23:00 +10°C° 0.6 mm 4 m/S 753 mmHg 82%

    29 Januar, Dienstag

    Zeit Temperatur Niederschläge Wind Luftdruck Luftfeuchtigkeit
    00:00 +10°C° 0.6 mm 4 m/S 753 mmHg 83%
    01:00 +10°C° 0.6 mm 3 m/S 753 mmHg 85%
    02:00 +10°C° 1.1 mm 3 m/S 753 mmHg 86%
    03:00 +9°C° 1.1 mm 2 m/S 752 mmHg 87%
    04:00 +9°C° 1.1 mm 2 m/S 752 mmHg 88%
    05:00 +9°C° 1 mm 2 m/S 752 mmHg 89%
    06:00 +9°C° 1 mm 2 m/S 752 mmHg 90%
    07:00 +9°C° 1 mm 2 m/S 752 mmHg 91%
    08:00 +9°C° 0.8 mm 3 m/S 753 mmHg 85%
    09:00 +10°C° 0.8 mm 3 m/S 753 mmHg 78%
    10:00 +11°C° 0.8 mm 4 m/S 753 mmHg 72%
    11:00 +12°C° 0.2 mm 5 m/S 753 mmHg 68%
    12:00 +11°C° 0.2 mm 6 m/S 753 mmHg 63%
    13:00 +12°C° 0.2 mm 7 m/S 753 mmHg 59%
    14:00 +11°C° 0.1 mm 6 m/S 753 mmHg 62%
    15:00 +10°C° 0.1 mm 5 m/S 753 mmHg 66%
    16:00 +11°C° 0.1 mm 4 m/S 753 mmHg 70%
    17:00 +10°C° 0.4 mm 4 m/S 753 mmHg 72%
    18:00 +10°C° 0.4 mm 3 m/S 753 mmHg 75%
    19:00 +9°C° 0.4 mm 3 m/S 754 mmHg 77%
    20:00 +9°C° 0.3 mm 3 m/S 754 mmHg 76%
    21:00 +9°C° 0.3 mm 3 m/S 754 mmHg 76%
    22:00 +9°C° 0.3 mm 3 m/S 754 mmHg 75%
    23:00 +8°C° 0.1 mm 3 m/S 753 mmHg 74%
    Mehr zeigen